Weather Roundup
Issued by NWS Chicago, IL

Home | Current Version | Previous Version | Graphics & Text | Print | Product List | Glossary On
Versions: 1 2 3 4 5 6 7 8 9 10 11 12 13 14 15 16 17 18 19 20 21 22 23 24 25 26 27 28 29 30 31 32 33 34 35 36 37 38 39 40 41 42 43 44 45 46 47 48 49 50
000
NZUS59 KLOT 280302
HRRLOT

CHICAGO AREA WEATHER ROUNDUP
NATIONAL WEATHER SERVICE CHICAGO/ROMEOVILLE IL
1000 PM CDT FRI MAR 27 2015

NOTE: "FAIR" INDICATES FEW OR NO CLOUDS BELOW 12,000 FEET WITH NO
SIGNIFICANT WEATHER AND/OR OBSTRUCTIONS TO VISIBILITY.

* THESE STATIONS ARE NOT UNDER NWS QUALITY CONTROL. THEY ALSO MAY NOT
  REPORT WEATHER SUCH AS PRECIPITATION OR FOG.

ILZ005-006-012>014-019>023-280400-
NORTHEAST ILLINOIS

CITY           SKY/WX    TMP DP  RH WIND       PRES   REMARKS
OHARE            N/A     24  12  60 VRB6      30.20S WCI  17
MIDWAY         PTCLDY    27  11  51 N10       30.21R WCI  17
AURORA         CLEAR     23  13  65 E8        30.22R WCI  14
WAUKEGAN       CLEAR     20  13  74 NW3       30.21R
DUPAGE AIRPORT CLEAR     20  12  71 NE6       30.20R WCI  12
WHEELING       CLEAR     22  13  68 N6        30.22S WCI  14
NORTHERLY IS     N/A     26  15  63 N10         N/A  WCI  16
$$

WIZ051-052-058>065-066-070>072-280400-
SOUTHEAST WISCONSIN

CITY           SKY/WX    TMP DP  RH WIND       PRES   REMARKS
MILWAUKEE      CLEAR     24  12  60 NE6       30.21R WCI  17
KENOSHA*       CLEAR     22  14  71 N5        30.21R WCI  16
RACINE*        CLEAR     23  12  62 N7        30.23R WCI  15
$$

INZ001>003-010>013-019-020-280400-
NORTHWEST INDIANA

CITY           SKY/WX    TMP DP  RH WIND       PRES   REMARKS
GARY*          CLEAR     27   5  39 N16       30.21S WCI  14
MICHIGAN CITY* NOT AVBL
RENSSELAER*    NOT AVBL
$$

LMZ740>746-280400-
SOUTHERN LAKE MICHIGAN

STATION/POSITION TIME  SKY/WX   TEMP WIND        PRES    VSBY
                                AIR  DIR/SP/G
                 (UTC)          (F)  (DEG/KT/KT) (MB)    (MI)
HARRISON CRIB    0200            26   10/ 20/ 22   N/A
BURNHAM HARBOR   0300            26  360/ 14/ 19   N/A
CALUMET HARBOR   0200            26  360/ 12/ 19 1021.5R
BURNS HARBOR     0213            26   20/ 20/ 25 1022.4S
MICHIGAN CITY    0200            24  340/ 23/ 26   N/A
$$

ABBREVIATIONS USED IN REMARKS
   TC - TEMPERATURE IN CELSIUS
  WCI - WIND CHILL INDEX
   HX - HEAT INDEX
  VSB - VISIBILITY
$$


USA.gov is the U.S. government's official web portal to all federal, state and local government web resources and services.